Regional Weather Roundup
Issued by NWS Columbia, SC

Home | Current Version | Previous Version | Text Only | Print | Product List | Glossary On
Versions: 1 2 3 4 5 6 7 8 9 10 11 12 13 14 15 16 17 18 19 20 21 22 23 24 25 26 27 28 29 30 31 32 33 34 35 36 37 38 39 40 41 42 43 44 45 46 47 48 49 50
000
ASUS42 KCAE 201610
RWRCAE
REGIONAL WEATHER ROUNDUP
NATIONAL WEATHER SERVICE COLUMBIA SC
1200 PM EDT SAT SEP 20 2014

NOTE: "FAIR" INDICATES FEW OR NO CLOUDS BELOW 12,000 FEET WITH NO
SIGNIFICANT WEATHER AND/OR OBSTRUCTIONS TO VISIBILITY.

NOT ALL STATIONS ARE QUALITY CONTROLLED BY THE NATIONAL
WEATHER SERVICE. USE DATA WITH CAUTION...ESPECIALLY
DEWPOINT OBSERVATIONS.

SCZ001>056-GAZ040-063>065-077-201700-
...UPSTATE SOUTH CAROLINA...

CITY           SKY/WX    TMP DP  RH WIND       PRES   REMARKS
ANDERSON       SUNNY     76  63  64 NE12      30.18F
LIBERTY        FAIR      76  62  61 MISG      30.19F
SPARTANBURG    FAIR      75  61  60 NE7       30.20F
CLEMSON        SUNNY     77  60  55 NE8       30.20F
GREENVILLE     SUNNY     75  60  59 NE9       30.21F
GREENWOOD      SUNNY     77  63  61 N12       30.18F
GREER          SUNNY     75  61  61 VRB7      30.19F
ROCK HILL      SUNNY     75  61  61 NE8       30.19F
CHESTER        FAIR      77  59  53 N12       30.22F
LAURENS        FAIR      73  55  53 N6        30.19F


...CENTRAL SOUTH CAROLINA...

CITY           SKY/WX    TMP DP  RH WIND       PRES   REMARKS
COLUMBIA APT   PTSUNNY   79  59  50 NE9       30.13R
COLUMBIA OWENS MOSUNNY   77  61  57 VRB5      30.15R
DARLINGTON     PTSUNNY   73  61  64 NE13      30.16F
FLORENCE       CLOUDY    72  62  71 NE12      30.13F
MCENTIRE ANGB  PTSUNNY   75  62  62 NE7       30.14S
ORANGEBURG     CLOUDY    73  60  63 NE14G21   30.12S
SUMTER SHAW    PTSUNNY   72  59  62 NE14      30.13S
NEWBERRY       FAIR      77  59  53 NE14      30.19F
AIKEN          FAIR      79  66  65 N10       30.16F
BARNWELL       FAIR      75  64  69 NE10G20   30.11S
MANNING        FAIR      72  66  83 N6        30.11S
CAMDEN         FAIR      75  59  57 NE14      30.15F
LANCASTER      FAIR      77  61  57 NE9       30.17F
WINNSBORO      FAIR      77  63  61 N9        30.15F


...EASTERN AND COASTAL SOUTH CAROLINA...

CITY           SKY/WX    TMP DP  RH WIND       PRES   REMARKS
MYRTLE BEACH   PTSUNNY   73  63  68 NE14      30.08F
N MYRTLE BCH   CLOUDY    73  65  75 N10G20    30.08S
CONWAY         FAIR      73  64  73 N13G20    30.09F
MARION         FAIR      72  63  73 N12G17    30.11F
HARTSVILLE     FAIR      77  43  29 NE12      30.16F
FLORENCE       CLOUDY    72  62  71 NE12      30.13F
DARLINGTON     PTSUNNY   73  61  64 NE13      30.16F
CHARLESTON APT CLOUDY    73  65  75 N12       30.06S
MOUNT PLEASANT FAIR      72  68  88 N7        30.06S
WALTERBORO     CLOUDY    72  68  88 NE10      30.08F
BEAUFORT       CLOUDY    72  67  84 W18       30.05S


...EASTERN GEORGIA...

CITY           SKY/WX    TMP DP  RH WIND       PRES   REMARKS
AUGUSTA BUSH F SUNNY     80  63  55 NE12      30.10F
AUGUSTA DANIEL SUNNY     81  64  56 N12       30.12F
THOMSON        SUNNY     79  71  76 N9G16     30.17F
WASHINGTON     FAIR      81  72  74 E8        30.15F
CLAXTON        PTSUNNY   77  70  78 NE8       30.06F
SYLVANIA       PTSUNNY   78  71  78 NE10      30.09F
STATESBORO     PTSUNNY   75  69  80 NE9G17    30.07F
SAVANNAH       CLOUDY    74  67  78 NE13G21   30.04S


...SOUTHERN NORTH CAROLINA...

CITY           SKY/WX    TMP DP  RH WIND       PRES   REMARKS
CHARLOTTE      MOSUNNY   76  59  55 N12G18    30.20F
MONROE         SUNNY     76  60  57 N9        30.17F
WADESBORO      SUNNY     77  58  52 N10       30.16F
ROCKINGHAM     MOSUNNY   74  60  61 N7        30.16F
RUTHERFORDTON  SUNNY     74  59  58 NE7       30.23F
ASHEVILLE      SUNNY     70  55  59 VRB3      30.25F

$$



USA.gov is the U.S. government's official web portal to all federal, state and local government web resources and services.